sat.trackr.live / text

‹ back to catalog

STARLINK-36947

NORAD 68033 · 2026-040U

PAYLOAD ACTIVE UNKNOWN

§ Identity

Operator
Country
US
Launch date
2026-03-01
Launch site
AFWTR
Launch vehicle
Mass (kg)
RCS (m²)

Purposes: comms

External: N2YO · Heavens-Above · Gunter

§ Orbital elements

Epoch: 2026-05-24T19:57:44.963424Z

Period
93.91 min
Inclination
97.2848°
Eccentricity
0.0001756
Mean motion
15.33455605 rev/d
Perigee alt
464.3 km
Apogee alt
466.7 km
Semi-major
6,843.6 km
B*
8.3210e-4
RAAN
93.8792°
Arg perigee
95.3324°
Mean anomaly
264.8119°
Rev number
1,313

§ Raw data

STARLINK-369471 68033U 26040U   26144.83177041  .00026894  00000+0  83210-3 0  99952 68033  97.2848  93.8792 0001756  95.3324 264.8119 15.33455605 13139

JSON: /api/v1/satellites/68033 · /tle

For live sub-satellite position, see the globe view (requires WebGL).

§ Visibility from observer

Set your observer location to see the next 7 days of passes ≥ 10°. The values pass through the URL so the page stays shareable.

No JS? Fill the form by hand. The geolocation button needs JavaScript.